GLOBALSTAR M067 [+]

Last updated on Fri Dec 29 2023 00:02:56 GMT+0000 (Coordinated Universal Time)

1 32263U 07048A 23361.91265191 -.00000089 00000+0 59227-4 0 9990 2 32263 51.9704 167.9906 0000365 101.4573 64.1166 12.40636581742796

Satellite not in orbit

GLOBALSTAR M067 [+]